Precipitable_Water
0.33 0.35 0.34 0.32 0.32 0.33 0.29 0.32 0.26 0.31 0.33 0.39 0.42 0.43 0.46 0.49 0.49 0.50 0.53 0.57 0.63 0.67 0.70 0.73 0.76 0.79 0.83 0.88 0.93 0.95 0.94 0.94 0.91 0.91 0.95 0.98 0.99 0.98 0.97 0.94 0.89 0.86 0.81 0.77
0.29 0.34 0.32 0.28 0.33 0.34 0.35 0.35 0.33 0.34 0.32 0.44 0.46 0.48 0.45 0.46 0.46 0.46 0.48 0.53 0.57 0.63 0.69 0.71 0.72 0.75 0.79 0.83 0.88 0.92 0.90 0.87 0.85 0.83 0.81 0.80 0.79 0.79 0.80 0.79 0.76 0.75 0.74 0.75
0.21 0.30 0.30 0.22 0.29 0.32 0.34 0.38 0.37 0.30 0.38 0.45 0.42 0.44 0.46 0.47 0.48 0.47 0.48 0.49 0.52 0.56 0.62 0.72 0.77 0.80 0.78 0.81 0.85 0.85 0.84 0.82 0.80 0.78 0.76 0.76 0.75 0.72 0.70 0.71 0.72 0.71 0.73 0.72
0.22 0.24 0.15 0.29 0.42 0.40 0.38 0.40 0.41 0.41 0.43 0.45 0.46 0.49 0.49 0.51 0.49 0.48 0.48 0.49 0.51 0.54 0.58 0.62 0.72 0.77 0.81 0.83 0.83 0.84 0.82 0.82 0.81 0.78 0.76 0.76 0.73 0.70 0.68 0.68 0.69 0.69 0.68 0.65
0.20 0.20 0.25 0.31 0.37 0.39 0.35 0.36 0.45 0.42 0.42 0.44 0.46 0.46 0.45 0.54 0.54 0.51 0.52 0.54 0.55 0.56 0.57 0.59 0.61 0.65 0.66 0.68 0.72 0.75 0.77 0.78 0.78 0.77 0.73 0.70 0.67 0.66 0.66 0.65 0.65 0.67 0.69 0.70
0.23 0.18 0.16 0.29 0.37 0.46 0.47 0.31 0.48 0.45 0.43 0.43 0.43 0.32 0.39 0.51 0.52 0.52 0.56 0.58 0.58 0.60 0.62 0.64 0.65 0.66 0.63 0.62 0.62 0.63 0.64 0.65 0.66 0.66 0.65 0.64 0.65 0.65 0.66 0.67 0.67 0.71 0.71 0.72
0.20 0.19 0.24 0.34 0.40 0.44 0.23 0.29 0.50 0.49 0.48 0.46 0.40 0.44 0.50 0.54 0.54 0.55 0.55 0.56 0.63 0.63 0.61 0.67 0.72 0.72 0.68 0.67 0.64 0.66 0.68 0.69 0.69 0.70 0.68 0.68 0.68 0.69 0.69 0.69 0.71 0.72 0.72 0.71
0.20 0.17 0.16 0.38 0.38 0.29 0.38 0.49 0.52 0.49 0.48 0.47 0.49 0.51 0.51 0.54 0.56 0.56 0.56 0.58 0.61 0.61 0.64 0.69 0.73 0.74 0.71 0.70 0.74 0.74 0.74 0.71 0.71 0.73 0.73 0.72 0.70 0.71 0.71 0.71 0.70 0.69 0.67 0.67
0.22 0.21 0.35 0.42 0.41 0.47 0.48 0.45 0.47 0.48 0.51 0.51 0.51 0.51 0.54 0.55 0.56 0.57 0.58 0.59 0.62 0.63 0.65 0.71 0.74 0.77 0.74 0.76 0.79 0.79 0.77 0.75 0.74 0.74 0.74 0.75 0.73 0.71 0.70 0.70 0.69 0.69 0.69 0.67
0.26 0.31 0.35 0.39 0.44 0.47 0.49 0.47 0.50 0.53 0.52 0.52 0.50 0.54 0.55 0.56 0.58 0.59 0.59 0.59 0.62 0.63 0.62 0.65 0.72 0.74 0.75 0.79 0.82 0.81 0.79 0.79 0.79 0.78 0.78 0.77 0.77 0.76 0.74 0.74 0.73 0.71 0.71 0.69
0.26 0.32 0.36 0.38 0.41 0.44 0.47 0.49 0.50 0.52 0.53 0.53 0.54 0.53 0.55 0.57 0.58 0.60 0.60 0.60 0.61 0.60 0.61 0.62 0.66 0.68 0.73 0.75 0.79 0.79 0.80 0.81 0.80 0.80 0.79 0.79 0.80 0.79 0.78 0.78 0.77 0.75 0.75 0.73
0.19 0.31 0.32 0.34 0.43 0.46 0.45 0.44 0.47 0.48 0.50 0.55 0.55 0.55 0.58 0.58 0.60 0.59 0.58 0.59 0.59 0.60 0.59 0.59 0.61 0.63 0.65 0.68 0.70 0.70 0.72 0.73 0.75 0.76 0.77 0.77 0.77 0.76 0.81 0.81 0.80 0.80 0.78 0.74
0.29 0.36 0.37 0.41 0.43 0.46 0.44 0.45 0.47 0.46 0.48 0.49 0.53 0.55 0.57 0.56 0.57 0.58 0.59 0.59 0.60 0.60 0.62 0.62 0.62 0.61 0.63 0.64 0.64 0.62 0.61 0.63 0.64 0.66 0.68 0.71 0.71 0.70 0.68 0.73 0.76 0.76 0.75 0.74
0.37 0.37 0.34 0.38 0.36 0.41 0.41 0.43 0.45 0.45 0.45 0.47 0.49 0.51 0.52 0.53 0.55 0.55 0.56 0.58 0.60 0.62 0.63 0.64 0.64 0.63 0.64 0.63 0.61 0.60 0.59 0.60 0.60 0.60 0.61 0.61 0.62 0.62 0.62 0.61 0.61 0.63 0.69 0.68
0.33 0.36 0.34 0.36 0.36 0.36 0.38 0.38 0.36 0.36 0.39 0.40 0.44 0.45 0.47 0.47 0.49 0.51 0.55 0.57 0.57 0.56 0.56 0.59 0.59 0.60 0.62 0.61 0.58 0.56 0.55 0.54 0.54 0.54 0.55 0.55 0.55 0.54 0.56 0.56 0.56 0.58 0.60 0.61
0.32 0.34 0.34 0.31 0.31 0.32 0.32 0.31 0.30 0.32 0.36 0.38 0.39 0.40 0.43 0.45 0.46 0.47 0.50 0.51 0.50 0.50 0.53 0.54 0.53 0.56 0.59 0.53 0.49 0.49 0.49 0.50 0.50 0.49 0.49 0.49 0.50 0.49 0.49 0.52 0.54 0.55 0.56 0.57
0.27 0.27 0.28 0.28 0.29 0.28 0.27 0.30 0.31 0.33 0.35 0.36 0.37 0.41 0.42 0.43 0.44 0.45 0.46 0.47 0.48 0.49 0.49 0.49 0.49 0.51 0.51 0.46 0.42 0.39 0.37 0.37 0.40 0.43 0.44 0.45 0.45 0.46 0.46 0.49 0.51 0.53 0.55 0.58
0.33 0.32 0.34 0.32 0.29 0.27 0.27 0.30 0.32 0.34 0.34 0.37 0.39 0.40 0.39 0.39 0.38 0.39 0.40 0.39 0.40 0.42 0.43 0.42 0.41 0.42 0.42 0.40 0.40 0.37 0.35 0.34 0.33 0.32 0.32 0.33 0.36 0.39 0.42 0.45 0.48 0.48 0.50 0.54
0.35 0.35 0.35 0.33 0.32 0.29 0.28 0.30 0.32 0.34 0.36 0.37 0.37 0.36 0.38 0.38 0.39 0.40 0.40 0.38 0.36 0.35 0.38 0.40 0.39 0.39 0.41 0.43 0.44 0.43 0.39 0.35 0.33 0.33 0.31 0.30 0.29 0.30 0.29 0.30 0.33 0.39 0.44 0.46
0.36 0.37 0.36 0.34 0.32 0.30 0.29 0.31 0.32 0.33 0.35 0.36 0.36 0.35 0.34 0.36 0.36 0.36 0.34 0.32 0.33 0.35 0.39 0.39 0.39 0.40 0.39 0.40 0.42 0.41 0.37 0.35 0.33 0.32 0.31 0.29 0.27 0.26 0.26 0.26 0.25 0.25 0.26 0.26
0.36 0.36 0.35 0.34 0.31 0.30 0.29 0.30 0.30 0.31 0.34 0.35 0.33 0.32 0.33 0.33 0.34 0.34 0.35 0.34 0.37 0.37 0.34 0.34 0.34 0.29 0.29 0.31 0.36 0.38 0.39 0.38 0.36 0.35 0.35 0.35 0.33 0.32 0.30 0.29 0.27 0.26 0.26 0.26
0.36 0.35 0.35 0.33 0.30 0.29 0.30 0.31 0.32 0.32 0.32 0.32 0.33 0.33 0.34 0.36 0.37 0.38 0.38 0.33 0.31 0.31 0.30 0.30 0.31 0.31 0.33 0.36 0.36 0.36 0.35 0.35 0.34 0.33 0.33 0.33 0.33 0.33 0.34 0.35 0.35 0.35 0.34 0.33
0.35 0.35 0.34 0.32 0.30 0.30 0.32 0.32 0.33 0.33 0.33 0.33 0.33 0.34 0.35 0.37 0.39 0.35 0.33 0.38 0.36 0.33 0.33 0.33 0.32 0.33 0.35 0.38 0.36 0.34 0.32 0.31 0.30 0.31 0.34 0.32 0.29 0.29 0.31 0.31 0.32 0.32 0.32 0.32
0.35 0.34 0.32 0.33 0.33 0.32 0.29 0.31 0.33 0.34 0.34 0.35 0.36 0.38 0.38 0.37 0.39 0.42 0.42 0.41 0.37 0.34 0.32 0.31 0.31 0.30 0.30 0.30 0.29 0.28 0.26 0.25 0.24 0.25 0.28 0.28 0.27 0.26 0.26 0.27 0.26 0.25 0.25 0.25
0.35 0.33 0.34 0.33 0.31 0.30 0.31 0.31 0.32 0.32 0.33 0.34 0.36 0.38 0.40 0.41 0.39 0.40 0.40 0.38 0.34 0.32 0.31 0.32 0.31 0.28 0.26 0.24 0.22 0.22 0.21 0.23 0.24 0.25 0.24 0.22 0.22 0.22 0.23 0.23 0.23 0.23 0.24 0.23
0.35 0.33 0.34 0.34 0.32 0.31 0.31 0.30 0.28 0.29 0.29 0.28 0.30 0.33 0.34 0.34 0.34 0.35 0.32 0.30 0.30 0.29 0.28 0.25 0.22 0.21 0.20 0.20 0.20 0.22 0.22 0.22 0.23 0.21 0.21 0.21 0.21 0.21 0.21 0.21 0.20 0.20 0.20 0.20
0.37 0.36 0.34 0.32 0.31 0.29 0.27 0.25 0.24 0.24 0.27 0.26 0.24 0.26 0.27 0.26 0.26 0.26 0.26 0.26 0.26 0.26 0.24 0.22 0.21 0.20 0.20 0.19 0.19 0.19 0.20 0.21 0.21 0.20 0.20 0.19 0.19 0.19 0.19 0.19 0.19 0.19 0.19 0.19
Wind_Speed
6 5 6 7 8 9 9 6 7 8 8 5 4 3 3 2 2 3 4 6 7 9 13 16 19 20 22 23 23 22 21 21 20 20 20 20 21 22 22 22 22 22 21 21
9 9 9 8 7 7 7 7 7 5 4 2 2 2 2 1 1 2 5 7 7 9 11 14 16 18 20 22 22 22 22 21 21 21 20 21 21 22 22 22 22 22 22 23
5 3 3 5 3 2 3 3 3 4 3 3 2 2 3 4 4 5 5 6 8 9 12 14 15 18 19 21 22 22 22 22 22 22 21 22 22 23 23 23 23 24 24 24
2 2 3 1 2 2 4 2 1 2 2 3 4 6 5 6 8 9 10 10 10 11 12 15 17 18 19 20 22 23 24 24 24 24 24 24 25 25 25 25 25 25 25 24
2 1 2 1 2 1 1 2 1 1 1 3 4 6 6 7 8 10 12 13 14 15 15 15 17 19 20 21 22 24 25 26 26 26 26 26 26 25 25 25 25 25 25 24
6 5 1 1 1 0 2 1 1 2 3 5 5 5 7 7 8 10 11 14 16 17 17 17 17 18 19 21 23 24 25 26 26 26 26 26 25 25 25 25 25 25 25 25
8 6 3 1 2 3 1 5 3 3 3 3 4 6 8 8 8 9 9 11 13 16 18 19 19 19 19 20 20 21 23 23 24 25 25 25 25 25 24 24 25 25 26 26
9 8 5 4 3 0 2 4 5 5 6 5 5 5 7 8 8 9 9 9 10 11 14 17 18 19 19 19 20 21 22 22 23 23 24 25 25 26 25 26 26 26 26 26
8 7 8 7 6 5 1 1 4 7 8 8 9 9 9 9 9 9 9 9 9 10 11 12 14 16 17 18 19 20 22 22 23 24 25 24 25 25 26 26 27 27 27 27
8 6 7 6 6 6 5 4 3 4 6 10 11 11 11 12 12 12 11 10 10 10 10 11 12 14 16 17 19 20 21 22 23 25 26 26 27 28 28 29 28 28 28 28
6 6 6 5 5 5 6 5 5 5 5 5 7 10 13 13 13 13 13 13 13 12 12 13 13 14 15 17 18 19 20 21 22 23 25 25 26 27 28 29 29 28 28 28
4 3 4 4 4 5 6 6 7 7 7 6 7 7 8 11 14 14 14 15 15 15 15 16 16 16 17 18 19 20 20 21 23 23 24 25 24 26 27 27 28 28 29 28
4 4 5 4 4 6 7 8 8 8 8 8 8 8 8 10 11 13 16 16 17 17 18 19 19 19 19 19 20 20 21 22 23 24 25 25 27 28 28 29 30 30 30 29
3 4 5 5 5 6 8 9 9 8 9 9 9 10 10 11 12 13 14 17 18 18 18 19 20 21 22 22 22 23 23 24 24 25 26 26 27 28 28 28 28 29 29 29
3 4 5 5 6 8 9 10 10 11 11 11 11 11 11 12 13 14 15 17 19 21 21 21 21 22 22 23 23 23 23 24 24 25 25 26 27 27 28 29 30 30 30 29
3 4 5 6 7 9 10 12 12 13 13 13 12 12 13 13 14 15 16 18 19 20 23 24 23 23 22 22 22 23 24 24 24 24 25 26 26 26 27 27 28 29 29 29
4 6 7 8 10 11 12 13 13 13 14 14 14 14 14 15 15 16 17 18 18 19 19 21 24 24 24 24 24 23 23 23 24 25 25 25 25 25 26 26 26 26 27 27
6 7 8 9 11 12 13 14 14 14 15 15 15 15 15 16 16 17 17 18 18 19 19 20 21 22 23 23 25 25 25 25 24 24 24 24 25 25 25 24 25 25 25 25
7 8 9 10 12 14 14 15 15 16 16 16 16 17 17 18 18 18 19 19 20 20 20 20 20 21 22 24 24 23 24 25 25 25 24 24 24 24 24 24 24 24 24 23
8 9 11 12 14 15 16 17 17 18 18 18 18 18 18 18 18 18 18 18 19 20 20 20 21 21 21 22 23 23 24 23 23 23 23 24 23 23 22 22 22 22 23 23
10 11 13 14 16 18 18 19 19 19 19 19 19 19 19 18 18 18 19 20 20 20 21 21 21 21 21 20 21 22 22 22 23 23 23 22 22 22 22 21 21 21 21 21
12 13 15 17 18 20 20 20 20 20 21 20 20 20 20 20 20 21 21 21 22 22 22 22 22 22 21 20 20 19 20 20 20 21 22 22 22 22 22 22 22 22 22 22
14 15 17 19 20 21 21 21 21 21 21 22 22 22 22 22 22 21 22 21 21 22 21 21 21 21 21 20 20 20 19 19 20 20 20 20 20 21 21 21 21 21 22 22
16 18 20 21 22 22 22 23 22 22 23 23 23 23 23 23 23 24 24 24 24 23 22 21 21 21 21 20 20 19 19 18 18 17 17 18 18 18 19 19 19 19 20 20
18 20 21 22 23 23 24 24 24 23 24 24 24 25 25 24 24 24 24 24 24 23 22 21 20 20 19 19 19 18 18 16 16 15 15 16 17 17 17 17 17 18 18 18
21 22 23 24 24 24 24 24 24 24 24 25 26 26 26 25 26 26 26 26 24 23 22 21 21 20 19 18 17 16 16 16 16 16 16 16 16 15 15 16 16 16 17 17
23 24 25 26 26 26 26 26 26 26 27 27 28 28 28 28 27 27 27 25 24 24 23 22 22 21 20 19 17 17 16 17 17 17 17 17 16 16 16 16 17 17 18 19
Wind_Direction
81 93 87 84 79 67 79 114 120 141 136 131 117 117 119 154 189 193 198 199 203 205 213 216 219 221 224 226 228 229 230 232 235 236 236 236 237 240 244 247 249 251 253 258
79 92 103 87 69 68 79 92 106 122 121 155 153 157 112 152 198 230 232 231 228 219 219 220 221 223 223 224 226 229 232 234 235 236 237 238 239 241 244 247 249 251 255 259
84 94 114 69 47 59 93 103 136 139 184 220 242 252 262 263 253 248 244 239 242 240 237 232 228 226 226 226 227 230 231 234 237 238 240 242 243 245 246 248 251 256 258 261
109 71 79 212 360 182 138 121 110 153 190 218 230 235 247 258 263 263 259 258 253 248 245 239 234 233 233 234 234 235 237 240 241 243 243 246 248 248 250 251 254 255 258 261
89 95 165 50 16 34 198 232 265 215 272 267 253 241 252 268 268 264 264 260 258 255 253 246 240 237 237 238 239 240 242 244 244 246 247 248 248 248 251 253 254 256 258 261
60 67 94 220 268 170 188 169 259 243 277 278 274 259 261 278 278 280 273 264 261 256 250 246 245 241 242 242 242 243 243 244 244 244 245 245 246 247 250 251 253 255 259 263
54 57 28 46 266 243 216 217 228 232 245 273 263 258 267 278 281 280 278 275 265 256 251 249 246 244 246 246 246 245 243 242 243 244 245 245 245 247 248 249 251 254 259 262
55 56 50 60 59 176 223 235 249 265 271 270 266 265 264 269 275 283 284 282 277 264 253 246 244 244 244 245 247 244 242 242 243 243 243 244 245 246 247 249 252 255 259 263
60 56 57 58 63 66 78 267 273 265 270 265 262 266 265 272 275 277 279 277 271 262 252 249 246 244 244 248 246 244 243 243 244 245 246 246 245 248 249 250 254 257 261 264
51 51 58 55 51 46 38 32 2 309 289 270 266 264 268 272 274 274 274 274 270 267 263 259 255 251 250 250 249 247 247 246 247 248 248 249 251 251 252 254 256 259 261 266
39 44 47 36 38 35 28 21 8 352 339 310 283 274 268 268 271 269 269 270 271 270 266 264 262 259 257 256 253 251 250 249 249 250 250 250 251 252 253 255 257 259 260 266
25 45 41 32 34 14 9 358 352 346 335 325 313 295 287 277 268 266 268 268 269 269 267 266 265 264 263 261 258 256 254 254 254 252 253 255 252 254 256 256 257 259 263 266
19 39 23 30 16 356 347 343 338 336 331 320 314 303 295 289 281 274 271 270 270 269 267 265 265 265 265 264 262 261 259 259 258 257 257 256 256 258 259 259 260 261 263 264
23 30 3 349 342 340 339 336 333 331 328 324 316 309 300 291 287 284 282 278 272 272 270 269 268 266 265 265 264 263 262 262 261 261 261 260 260 261 261 261 261 262 263 265
6 352 354 351 342 336 331 328 324 321 319 316 315 311 304 297 293 290 287 285 280 274 273 272 271 269 267 267 266 264 264 264 263 263 263 263 263 264 264 263 262 263 264 265
342 345 340 335 330 329 329 325 321 318 315 313 311 309 306 301 297 293 291 292 291 283 274 272 271 270 270 267 267 266 266 266 266 265 265 265 265 265 266 265 264 263 264 265
330 320 321 322 322 324 324 322 317 317 317 314 311 310 307 304 300 297 296 295 295 291 288 278 274 272 269 268 268 268 268 268 268 267 266 266 266 267 267 267 266 266 265 265
319 323 320 320 319 321 321 321 318 317 316 315 312 310 307 305 302 300 298 299 296 293 292 290 284 276 273 271 268 267 268 268 269 268 268 268 267 267 268 268 267 267 267 267
308 315 318 320 320 321 319 317 314 312 313 313 311 308 307 305 303 300 298 297 296 295 293 292 290 285 279 273 273 271 269 268 269 269 269 268 267 267 267 267 267 267 267 267
303 310 314 316 318 318 316 315 312 311 310 310 311 310 308 307 305 303 301 298 297 296 295 293 292 291 289 282 275 272 271 270 269 269 269 267 266 266 267 267 267 267 267 267
298 305 310 312 313 315 314 312 311 309 309 307 308 309 308 308 306 306 304 302 301 298 296 294 293 295 296 290 283 276 274 271 269 269 269 267 266 265 265 266 267 267 268 268
298 304 308 311 312 312 311 310 308 306 305 306 306 306 307 306 305 304 302 301 301 299 298 296 295 294 292 293 285 283 279 275 272 271 268 267 266 265 266 266 266 267 268 268
299 304 308 310 311 311 310 308 307 305 304 303 303 303 303 303 303 302 303 303 301 301 299 297 296 296 294 291 289 283 279 279 275 272 270 268 267 265 266 267 268 269 270 270
301 305 309 310 311 311 309 309 307 305 303 303 302 303 302 302 301 300 299 299 299 299 298 297 297 295 295 293 289 283 280 281 278 275 272 270 268 268 270 269 270 271 272 272
301 305 309 309 309 308 308 308 307 306 305 304 304 304 303 302 300 302 301 300 299 298 297 296 296 297 297 296 291 283 277 279 276 278 279 277 275 273 272 272 272 273 274 275
302 304 306 306 306 307 307 307 306 306 306 306 306 306 305 303 302 300 299 297 296 294 293 293 294 295 295 295 294 287 276 276 278 280 280 279 278 276 275 275 275 276 277 280
303 304 306 306 306 305 305 305 305 305 305 305 306 306 305 304 302 300 298 297 295 292 290 289 288 288 289 290 289 286 282 279 279 281 280 279 277 276 277 278 280 281 283 284